Palma de Mallorca, Spain

5:45 PM CET on February 19, 2017 (GMT +0100)
Palma De Mallorca

Weather History for LEPA - October, 2012

Change the Weather History Date:

Thursday, October 11, 2012

  Actual Average Record
Temperature  
Mean Temperature 72 °F -  
Max Temperature 79 °F 70 °F 84 °F (1997)
Min Temperature 65 °F 52 °F 51 °F (1996)
Cooling Degree Days 7    
Growing Degree Days 22 (Base 50)    
Moisture  
Dew Point 67 °F    
Average Humidity 81    
Maximum Humidity 100    
Minimum Humidity 51    
Precipitation  
Precipitation 0.00 in 0.07 in - ()
Sea Level Pressure  
Sea Level Pressure 29.84 in    
Wind  
Wind Speed 3 mph ()    
Max Wind Speed 16 mph    
Max Gust Speed -    
Visibility 4.9 miles    
Events      
Averages and records for this station are not official NWS values.
T = Trace of Precipitation, MM = Missing Value Source: Averaged Metar Reports

Daily Weather History Graph

Daily Weather History Graph

Search for Another Location

Airport or City:

Trip Planner

Search our weather history database for the weather conditions in past years. The results will help you decide how hot, cold, wet, or windy it might be!

Date:

Astronomy

Oct. 11, 2012 Rise Set
Actual Time 7:55 AM CEST 7:15 PM CEST
Civil Twilight 7:28 AM CEST 7:42 PM CEST
Nautical Twilight 6:57 AM CEST 8:13 PM CEST
Astronomical Twilight 6:25 AM CEST 8:44 PM CEST
Moon 3:18 AM CEST (10/11) 4:42 PM CEST (10/11)
Length of Visible Light 12h 14m
Length of Day
11h 20m
Waning Crescent, 20% of the Moon is Illuminated
Oct 11
Waning Crescent
Oct 15
New
Oct 22
First Quarter
Oct 29
Full
Nov 7
Last Quarter

Hourly Weather History & Observations

Time (CEST) Temp. Dew Point Humidity Pressure Visibility Wind Dir Wind Speed Gust Speed Precip Events Conditions
12:30 AM 69.8 °F 68.0 °F 94% 29.92 in 5.6 mi Calm Calm - N/A   Scattered Clouds
1:00 AM 69.8 °F 68.0 °F 94% 29.89 in 3.7 mi Calm Calm - N/A   Scattered Clouds
2:00 AM 68 °F 63 °F 80% 29.89 in 3 mi Calm Calm - -   Mist
2:30 AM 68.0 °F 66.2 °F 94% 29.89 in 2.5 mi NE 2.3 mph - N/A   Scattered Clouds
3:00 AM 69.8 °F 68.0 °F 94% 29.86 in 2.5 mi Calm Calm - N/A   Scattered Clouds
3:30 AM 69.8 °F 68.0 °F 94% 29.86 in 2.5 mi Variable 1.2 mph - N/A   Scattered Clouds
4:00 AM 68.0 °F 66.2 °F 94% 29.86 in 2.5 mi Calm Calm - N/A   Scattered Clouds
4:30 AM 69.8 °F 68.0 °F 94% 29.86 in 2.5 mi Variable 1.2 mph - N/A   Partly Cloudy
5:00 AM 71.6 °F 68.0 °F 88% 29.86 in 3.1 mi South 3.5 mph - N/A   Partly Cloudy
5:30 AM 68.0 °F 66.2 °F 94% 29.83 in 3.1 mi Variable 1.2 mph - N/A   Partly Cloudy
6:00 AM 68.0 °F 66.2 °F 94% 29.83 in 3.1 mi NE 1.2 mph - N/A   Partly Cloudy
6:30 AM 68.0 °F 66.2 °F 94% 29.83 in 2.5 mi East 2.3 mph - N/A   Scattered Clouds
7:00 AM 68.0 °F 66.2 °F 94% 29.83 in 1.9 mi Variable 2.3 mph - N/A   Scattered Clouds
7:30 AM 68.0 °F 66.2 °F 94% 29.83 in 1.9 mi ENE 2.3 mph - N/A   Scattered Clouds
8:00 AM 67 °F 64 °F 87% 29.86 in 2 mi NW 3.5 mph - -   Mist
8:00 AM 68.0 °F 66.2 °F 94% 29.83 in 1.9 mi NNE 3.5 mph - N/A   Scattered Clouds
8:30 AM 68.0 °F 66.2 °F 94% 29.83 in 2.2 mi NE 1.2 mph - N/A   Scattered Clouds
9:00 AM 68.0 °F 68.0 °F 100% 29.83 in 2.5 mi Calm Calm - N/A   Partly Cloudy
9:30 AM 71.6 °F 69.8 °F 94% 29.83 in 3.1 mi Variable 1.2 mph - N/A   Partly Cloudy
10:00 AM 75.2 °F 69.8 °F 83% 29.86 in 3.7 mi Calm Calm - N/A   Partly Cloudy
10:30 AM 75.2 °F 68.0 °F 78% 29.86 in 5.6 mi South 3.5 mph - N/A   Scattered Clouds
11:00 AM 75.2 °F 68.0 °F 78% 29.86 in 6.2 mi WSW 4.6 mph - N/A   Scattered Clouds
11:30 AM 77.0 °F 68.0 °F 74% 29.86 in 6.2 mi WSW 6.9 mph - N/A   Scattered Clouds
12:00 PM 77.0 °F 69.8 °F 78% 29.83 in 6.2 mi SW 6.9 mph - N/A   Scattered Clouds
12:30 PM 77.0 °F 68.0 °F 74% 29.83 in 6.2 mi SW 6.9 mph - N/A   Scattered Clouds
1:00 PM 77.0 °F 68.0 °F 74% 29.83 in 6.2 mi SW 9.2 mph - N/A   Scattered Clouds
1:30 PM 78.8 °F 68.0 °F 69% 29.83 in 6.2 mi SW 9.2 mph - N/A   Scattered Clouds
2:00 PM 79 °F 64 °F 51% 29.83 in 11 mi SW 12.7 mph - -   Scattered Clouds
2:00 PM 78.8 °F 68.0 °F 69% 29.83 in 6.2 mi SW 10.4 mph - N/A   Partly Cloudy
2:30 PM 78.8 °F 68.0 °F 69% 29.80 in 6.2 mi SSW 10.4 mph - N/A   Partly Cloudy
3:00 PM 77.0 °F 69.8 °F 78% 29.80 in 6.2 mi SW 12.7 mph - N/A   Partly Cloudy
3:30 PM 78.8 °F 69.8 °F 74% 29.80 in 5.6 mi SW 12.7 mph - N/A   Partly Cloudy
4:00 PM 77.0 °F 68.0 °F 74% 29.80 in 5.6 mi SW 13.8 mph - N/A   Partly Cloudy
4:30 PM 78.8 °F 68.0 °F 69% 29.80 in 6.2 mi WSW 16.1 mph - N/A   Partly Cloudy
5:00 PM 78.8 °F 66.2 °F 65% 29.80 in 6.2 mi WSW 11.5 mph - N/A   Partly Cloudy
5:30 PM 78.8 °F 66.2 °F 65% 29.80 in 6.2 mi NNW 6.9 mph - N/A   Partly Cloudy
6:00 PM 78.8 °F 66.2 °F 65% 29.80 in 6.2 mi WNW 5.8 mph - N/A   Partly Cloudy
6:30 PM 77.0 °F 66.2 °F 69% 29.80 in 5.6 mi WNW 3.5 mph - N/A   Partly Cloudy
7:00 PM 77.0 °F 66.2 °F 69% 29.80 in 6.2 mi WNW 3.5 mph - N/A   Partly Cloudy
7:30 PM 75.2 °F 66.2 °F 73% 29.80 in 6.2 mi Variable 2.3 mph - N/A   Partly Cloudy
8:00 PM 75 °F 63 °F 57% 29.82 in 11 mi NNW 3.5 mph - -   Scattered Clouds
8:00 PM 75.2 °F 66.2 °F 73% 29.80 in 6.2 mi Variable 2.3 mph - N/A   Partly Cloudy
8:30 PM 75.2 °F 66.2 °F 73% 29.83 in 6.2 mi Calm Calm - N/A   Partly Cloudy
9:00 PM 75.2 °F 68.0 °F 78% 29.83 in 6.2 mi SW 3.5 mph - N/A   Partly Cloudy
9:30 PM 75.2 °F 68.0 °F 78% 29.83 in 6.2 mi SW 4.6 mph - N/A   Partly Cloudy
10:00 PM 73.4 °F 68.0 °F 83% 29.83 in 6.2 mi West 6.9 mph - N/A   Partly Cloudy
10:30 PM 73.4 °F 69.8 °F 88% 29.86 in 6.2 mi SW 6.9 mph - N/A   Partly Cloudy
11:00 PM 73.4 °F 68.0 °F 83% 29.86 in - WSW 8.1 mph - N/A   Clear
11:30 PM 73.4 °F 69.8 °F 88% 29.86 in - SW 9.2 mph - N/A   Clear